Temperature
2 2 2 2 2 2 2 2 2 1 1 2 2 2 2 2 2 2 3 3 3 3 3 2 2 2 2 2 2 2 2 2 2 2 3 3 3 3
1 1 1 1 2 2 2 1 1 1 1 1 1 1 1 1 2 2 2 2 2 2 2 2 2 2 1 1 1 1 1 1 2 2 2 2 2 2
1 1 1 1 1 1 1 1 1 1 1 1 1 1 1 1 1 1 1 1 2 1 1 1 1 1 1 1 1 1 1 1 1 1 1 1 1 1
0 0 0 0 0 0 0 0 0 0 0 0 0 0 0 0 0 0 1 1 1 1 1 1 1 1 1 1 0 0 0 1 1 1 0 1 1 1
-0 -0 -0 -0 -0 -0 -0 -0 -0 -0 -0 -0 -0 -0 -0 -0 -0 -0 -0 0 0 0 0 0 0 0 -0 -0 -0 -0 -0 -0 0 0 0 0 0 0
-1 -1 -1 -1 -1 -1 -1 -1 -1 -1 -1 -1 -1 -1 -1 -1 -1 -1 -1 -0 -0 -0 -0 -1 -1 -1 -0 -1 -1 -1 -1 -1 -1 -0 -0 -0 -0 -0
-2 -1 -1 -1 -1 -1 -1 -1 -1 -2 -2 -2 -2 -1 -1 -1 -1 -1 -1 -1 -1 -1 -1 -1 -1 -1 -1 -1 -1 -1 -1 -1 -1 -1 -1 -1 -1 -1
-2 -2 -2 -2 -2 -2 -2 -2 -2 -2 -2 -3 -2 -2 -2 -2 -2 -2 -2 -2 -2 -2 -2 -2 -2 -2 -2 -2 -2 -2 -2 -2 -2 -2 -2 -2 -2 -2
-3 -3 -3 -3 -3 -3 -3 -3 -3 -3 -3 -3 -3 -3 -3 -3 -3 -3 -3 -3 -3 -3 -3 -2 -2 -2 -2 -2 -2 -2 -2 -2 -2 -2 -2 -2 -2 -2
-4 -4 -4 -4 -3 -4 -4 -4 -3 -3 -4 -4 -4 -4 -4 -4 -4 -4 -4 -4 -4 -4 -4 -4 -3 -3 -3 -3 -3 -3 -3 -3 -3 -3 -3 -3 -3 -3
-5 -5 -4 -4 -4 -4 -4 -4 -4 -4 -4 -4 -4 -4 -4 -4 -5 -5 -5 -5 -4 -4 -4 -5 -4 -4 -4 -4 -4 -4 -4 -4 -4 -4 -4 -4 -3 -3
-5 -5 -5 -5 -5 -5 -5 -5 -5 -5 -5 -5 -5 -5 -5 -5 -5 -5 -5 -5 -6 -5 -5 -5 -5 -5 -5 -5 -5 -4 -4 -4 -4 -4 -4 -4 -4 -4
-6 -6 -6 -6 -6 -6 -6 -6 -6 -6 -6 -6 -6 -6 -6 -6 -6 -6 -6 -6 -6 -6 -6 -6 -6 -6 -6 -6 -6 -5 -5 -5 -5 -5 -5 -5 -5 -5
-6 -6 -6 -6 -6 -6 -6 -6 -7 -7 -7 -7 -7 -6 -6 -6 -6 -6 -7 -7 -7 -7 -6 -7 -7 -7 -7 -7 -7 -6 -6 -6 -6 -6 -6 -6 -6 -6
-7 -7 -7 -7 -7 -7 -7 -7 -7 -7 -7 -7 -7 -7 -7 -7 -7 -7 -7 -7 -7 -7 -7 -7 -7 -7 -7 -7 -7 -7 -7 -7 -7 -7 -6 -6 -6 -6
-8 -8 -8 -8 -8 -8 -8 -8 -8 -8 -8 -8 -8 -8 -8 -8 -8 -8 -8 -8 -8 -8 -8 -8 -8 -8 -8 -8 -8 -8 -8 -8 -7 -7 -7 -7 -7 -7
-9 -9 -9 -8 -8 -8 -8 -8 -8 -8 -8 -8 -9 -9 -9 -9 -9 -9 -9 -9 -9 -9 -8 -8 -8 -8 -8 -8 -8 -8 -8 -8 -8 -8 -8 -8 -7 -7
-9 -9 -9 -9 -9 -9 -9 -9 -9 -9 -9 -9 -9 -9 -9 -9 -9 -9 -9 -9 -9 -9 -9 -9 -9 -9 -9 -9 -9 -9 -9 -9 -9 -9 -8 -8 -8 -8
-10 -10 -10 -10 -10 -10 -10 -10 -10 -10 -10 -10 -10 -10 -10 -10 -10 -10 -10 -10 -10 -10 -10 -9 -9 -10 -10 -10 -9 -9 -9 -9 -9 -9 -9 -9 -9 -8
-11 -11 -11 -11 -11 -11 -11 -10 -10 -10 -10 -10 -10 -10 -11 -11 -11 -11 -11 -11 -10 -10 -10 -10 -10 -10 -10 -10 -10 -10 -10 -10 -10 -9 -9 -9 -9 -9
-11 -11 -11 -11 -11 -11 -11 -11 -11 -11 -11 -11 -11 -11 -11 -11 -11 -11 -11 -11 -11 -11 -11 -10 -10 -11 -11 -11 -11 -10 -10 -10 -10 -10 -10 -10 -10 -9
-12 -12 -12 -12 -12 -12 -12 -12 -12 -11 -11 -11 -11 -11 -12 -12 -12 -12 -12 -12 -11 -11 -11 -11 -11 -11 -11 -11 -11 -11 -10 -10 -10 -10 -10 -10 -10 -10
-13 -13 -12 -12 -12 -12 -12 -12 -12 -12 -12 -12 -12 -12 -12 -12 -12 -12 -12 -12 -12 -12 -12 -12 -12 -11 -11 -11 -11 -11 -11 -11 -11 -11 -11 -10 -11 -11
Wind_Speed
2 2 1 1 1 2 2 2 3 3 3 2 1 1 2 1 1 1 2 3 3 3 3 3 3 2 2 2 3 4 5 5 6 6 7 7 8 9
2 2 1 1 1 1 1 1 2 3 3 2 2 1 1 2 2 2 2 2 3 3 3 3 3 3 2 2 3 4 5 6 6 7 8 8 8 8
2 2 2 1 1 1 1 1 1 2 3 3 2 1 1 1 2 2 3 2 3 3 3 3 3 3 2 2 3 5 5 6 7 7 8 8 8 8
2 2 2 2 2 2 1 1 1 2 3 3 2 1 2 2 1 2 2 2 2 3 4 4 3 4 3 4 4 5 5 6 7 7 7 8 8 8
3 4 3 3 3 2 2 2 2 1 2 3 3 2 2 1 1 2 2 2 2 3 4 4 4 4 5 5 5 5 5 6 7 7 7 7 7 7
4 4 4 4 5 4 3 3 2 2 1 2 3 2 2 2 1 1 2 2 2 2 3 4 4 4 5 5 6 6 6 7 7 7 7 7 7 7
4 4 5 6 6 5 4 4 3 3 2 2 3 3 2 2 2 2 2 2 3 2 1 2 2 2 3 5 5 6 6 6 6 7 7 7 7 7
5 4 5 5 6 6 6 6 5 5 4 4 4 4 4 3 2 2 2 2 2 1 1 3 2 2 3 4 5 6 6 6 6 7 7 6 6 7
4 4 4 4 5 3 4 4 5 7 7 6 6 6 5 4 3 3 3 3 4 2 1 3 2 3 4 5 7 7 6 6 6 6 7 7 7 7
4 5 5 5 5 5 3 3 3 4 5 5 5 6 5 5 5 4 3 3 3 2 2 2 2 3 4 5 7 6 6 6 6 6 6 6 6 7
4 4 5 5 7 7 4 4 4 4 5 6 7 7 7 7 6 3 3 3 3 3 2 2 2 2 3 3 5 6 6 6 7 6 6 6 6 6
3 4 6 6 7 7 5 5 5 5 4 3 4 4 4 4 6 4 4 4 3 3 2 2 2 1 2 2 3 4 5 6 7 7 8 7 6 5
3 3 4 6 7 8 6 5 6 5 3 3 2 2 2 3 3 4 4 4 4 4 3 2 2 2 2 3 3 3 4 5 6 7 7 7 7 5
3 3 3 6 7 7 5 5 6 4 2 2 2 3 3 3 3 3 4 4 5 5 5 4 3 3 3 4 4 3 3 5 5 5 5 7 8 8
2 4 5 6 5 4 3 4 3 2 2 2 3 3 2 2 2 2 2 2 3 4 5 6 4 4 4 5 4 4 4 4 5 4 5 5 5 5
2 3 4 4 3 2 2 1 1 2 2 2 2 2 2 2 2 2 3 2 3 3 3 5 5 5 5 5 5 5 4 3 3 4 5 5 6 6
1 1 1 1 1 1 1 1 1 2 2 2 2 2 2 2 3 2 2 2 3 4 4 2 3 4 5 5 5 6 5 5 5 5 5 6 6 6
1 1 2 2 2 2 2 2 2 2 2 2 2 2 2 3 3 3 3 3 4 4 4 3 2 2 3 4 6 6 5 5 5 5 5 6 7 6
1 1 2 2 2 2 2 2 2 2 2 2 3 3 3 3 3 3 3 4 4 4 4 3 3 3 4 6 4 6 5 5 4 5 5 5 7 7
1 2 2 2 2 2 2 2 2 2 2 2 3 3 3 3 3 3 3 4 4 4 4 3 4 5 6 6 4 5 7 5 4 5 5 5 6 8
2 2 2 2 2 2 2 2 2 3 3 3 3 3 3 3 3 3 3 5 4 4 4 5 5 5 3 2 3 4 5 8 8 6 4 4 5 5
2 2 2 2 2 2 2 2 2 2 3 3 3 3 3 3 3 4 4 4 4 4 4 4 3 2 2 4 5 6 6 5 7 9 10 9 5 5
2 2 2 2 2 2 2 3 3 3 3 3 3 3 3 3 3 4 4 4 4 4 3 3 2 2 3 4 5 5 6 5 4 4 5 8 10 12
Wind_Direction
205 206 214 234 216 203 194 190 190 217 241 239 242 306 319 337 301 297 302 280 273 280 278 281 272 266 276 290 306 313 314 312 311 307 303 301 301 303
210 196 218 225 226 223 198 190 193 204 234 247 247 290 285 295 305 305 285 290 290 286 288 289 286 277 276 289 307 312 310 310 308 304 301 300 300 301
226 208 215 205 199 230 205 183 189 191 225 267 278 282 256 284 312 305 288 283 285 277 282 285 289 295 291 298 304 309 309 309 306 301 296 293 295 297
226 222 229 213 198 210 206 212 216 213 212 247 275 272 267 243 260 292 313 291 281 273 271 265 274 285 289 286 287 294 301 305 306 300 296 290 290 293
221 221 227 214 216 218 209 215 229 247 225 220 252 255 256 250 284 303 316 306 286 271 265 261 270 270 274 279 278 285 291 297 303 304 301 297 291 292
227 226 226 221 218 216 218 215 215 232 234 225 241 239 246 245 231 264 302 307 297 278 262 270 278 275 276 280 284 285 288 291 295 300 300 295 293 293
234 234 235 235 235 225 226 215 207 213 223 237 246 251 247 230 234 242 269 294 297 261 260 276 288 292 291 288 287 289 293 295 297 300 303 299 293 292
240 246 247 241 246 245 244 237 221 211 216 232 247 242 247 247 246 244 252 273 275 259 286 285 255 267 285 284 292 295 293 294 297 298 298 296 298 298
239 242 250 246 241 231 246 255 253 248 234 223 233 240 239 234 230 243 246 249 254 250 268 273 250 253 265 277 286 289 287 288 290 291 291 295 296 297
244 243 242 237 232 225 225 235 250 255 253 239 229 235 237 226 219 232 244 265 280 259 226 251 261 261 270 275 280 274 279 288 291 288 288 293 296 296
251 248 246 237 240 239 227 229 244 259 267 262 255 250 250 247 230 215 230 244 270 265 222 227 253 281 272 260 270 275 274 283 290 291 289 292 292 292
258 256 255 249 245 242 226 218 235 244 240 253 262 262 254 249 246 222 213 228 249 255 223 209 236 272 284 267 259 276 280 283 285 288 289 288 290 292
249 250 253 263 259 253 245 227 236 244 232 227 238 247 244 234 232 229 221 223 231 240 221 208 239 242 249 275 277 266 269 279 286 286 282 281 285 286
244 244 248 263 267 259 251 241 245 252 215 214 227 238 240 242 233 230 237 238 241 247 233 218 232 232 244 268 274 275 265 270 273 274 274 280 282 283
248 249 256 262 266 257 251 250 244 223 211 226 238 250 249 234 221 225 231 235 252 261 250 236 231 238 238 251 260 269 280 276 264 261 269 272 271 273
275 267 268 270 276 263 251 254 259 228 221 228 238 245 250 242 240 241 251 248 261 276 271 251 239 232 246 252 254 263 261 261 267 268 272 273 272 267
256 261 215 207 231 228 229 231 234 233 239 235 232 245 254 257 258 247 249 254 252 260 273 281 264 249 246 245 252 255 258 263 264 268 268 272 271 267
233 179 215 218 221 224 222 225 225 231 232 230 229 236 249 256 261 260 254 247 250 257 260 265 271 287 287 268 238 245 251 259 265 267 263 269 275 274
201 199 218 226 229 228 227 229 230 234 235 232 238 239 244 253 254 250 249 249 251 254 255 250 246 238 253 270 267 240 246 260 267 269 264 261 269 275
231 227 234 237 233 226 228 233 240 234 231 233 237 240 240 244 250 251 250 250 252 255 255 250 238 233 238 252 264 272 256 253 257 266 273 273 271 279
249 244 240 238 240 236 236 234 234 236 234 235 241 245 242 239 248 257 262 267 267 256 252 256 256 259 257 258 270 275 274 267 258 258 263 274 280 282
257 252 250 243 242 238 240 238 238 241 240 239 242 244 244 239 243 250 253 259 265 260 264 273 278 270 250 250 263 274 285 292 285 275 264 253 249 256
267 263 259 251 247 241 239 238 237 239 242 242 242 243 239 241 245 249 252 255 261 261 266 271 274 272 265 258 262 272 276 287 296 297 287 278 269 267
Height
1501 1502 1502 1503 1504 1505 1506 1506 1507 1506 1506 1507 1507 1508 1509 1509 1510 1510 1511 1512 1512 1512 1513 1513 1514 1514 1514 1514 1514 1513 1513 1513 1513 1512 1512 1511 1511 1511
1497 1498 1498 1499 1500 1501 1501 1502 1502 1503 1502 1503 1503 1504 1505 1505 1506 1506 1507 1508 1508 1508 1509 1509 1510 1510 1510 1510 1510 1509 1509 1508 1508 1507 1507 1506 1506 1506
1493 1494 1494 1495 1496 1497 1497 1497 1498 1499 1498 1499 1500 1500 1501 1501 1502 1502 1503 1503 1504 1504 1505 1505 1505 1506 1506 1506 1505 1505 1504 1504 1503 1502 1502 1501 1501 1501
1489 1489 1490 1491 1491 1492 1493 1493 1494 1495 1495 1495 1495 1496 1497 1497 1498 1498 1498 1499 1499 1500 1501 1501 1501 1501 1501 1501 1501 1501 1500 1499 1498 1497 1496 1496 1496 1496
1485 1485 1486 1487 1487 1488 1488 1489 1490 1491 1492 1491 1491 1492 1492 1493 1493 1494 1494 1494 1495 1496 1496 1497 1497 1497 1497 1497 1497 1496 1495 1495 1494 1493 1492 1491 1491 1491
1480 1481 1481 1482 1483 1483 1484 1485 1486 1486 1487 1487 1487 1487 1488 1488 1489 1489 1489 1490 1490 1491 1491 1492 1493 1493 1493 1493 1492 1492 1491 1491 1490 1489 1488 1487 1487 1487
1475 1476 1476 1477 1478 1478 1479 1480 1480 1481 1482 1482 1482 1483 1483 1483 1484 1484 1485 1485 1485 1486 1486 1487 1487 1487 1488 1488 1488 1487 1487 1486 1485 1484 1483 1483 1482 1482
1469 1470 1471 1472 1472 1473 1474 1475 1476 1476 1477 1478 1478 1478 1478 1479 1480 1480 1480 1480 1480 1482 1481 1482 1483 1482 1483 1483 1483 1482 1482 1481 1481 1480 1479 1479 1478 1478
1464 1465 1465 1466 1467 1468 1469 1470 1471 1472 1473 1474 1473 1473 1474 1474 1475 1475 1476 1476 1476 1477 1477 1476 1477 1477 1478 1478 1478 1478 1477 1477 1476 1476 1475 1474 1474 1473
1460 1460 1461 1461 1462 1463 1463 1464 1465 1466 1467 1468 1469 1469 1470 1470 1471 1471 1471 1471 1472 1473 1473 1471 1471 1472 1472 1473 1473 1473 1472 1472 1472 1471 1470 1470 1469 1469
1455 1455 1456 1456 1457 1458 1458 1459 1460 1461 1462 1463 1464 1464 1465 1465 1466 1466 1466 1466 1466 1467 1468 1467 1467 1467 1467 1467 1468 1467 1467 1467 1467 1466 1466 1465 1465 1464
1450 1451 1452 1452 1452 1453 1454 1454 1455 1456 1457 1457 1458 1459 1459 1460 1460 1461 1461 1462 1461 1462 1462 1463 1463 1463 1462 1462 1462 1462 1462 1462 1462 1461 1461 1460 1460 1459
1445 1445 1446 1447 1447 1448 1449 1450 1450 1451 1452 1452 1453 1453 1454 1454 1455 1456 1456 1457 1457 1457 1459 1459 1459 1459 1459 1457 1456 1457 1457 1457 1457 1456 1456 1455 1455 1454
1441 1441 1441 1442 1443 1443 1444 1445 1446 1447 1447 1447 1447 1448 1448 1449 1450 1450 1451 1452 1452 1453 1454 1455 1454 1454 1454 1452 1452 1451 1452 1452 1451 1451 1450 1450 1450 1449
1436 1437 1437 1438 1438 1439 1440 1441 1441 1442 1442 1442 1442 1443 1443 1444 1445 1445 1446 1447 1447 1448 1448 1449 1449 1450 1449 1448 1447 1447 1446 1446 1446 1445 1445 1444 1444 1443
1432 1432 1433 1434 1434 1435 1435 1436 1437 1437 1438 1438 1438 1438 1439 1439 1440 1440 1441 1441 1441 1442 1443 1443 1444 1444 1444 1443 1443 1441 1442 1441 1440 1440 1440 1439 1438 1438
1428 1428 1428 1429 1430 1430 1431 1431 1432 1433 1433 1433 1433 1433 1434 1434 1435 1435 1436 1436 1436 1436 1437 1438 1438 1439 1438 1438 1437 1436 1436 1436 1436 1435 1434 1433 1432 1432
1425 1424 1425 1425 1425 1426 1426 1427 1428 1428 1428 1429 1429 1429 1429 1429 1430 1430 1431 1431 1431 1431 1432 1432 1433 1433 1433 1432 1433 1431 1431 1431 1430 1430 1429 1427 1426 1426
1421 1421 1421 1421 1422 1422 1422 1423 1423 1424 1424 1425 1425 1425 1425 1425 1425 1426 1426 1426 1427 1427 1427 1428 1428 1428 1427 1426 1426 1427 1426 1425 1425 1424 1424 1422 1421 1420
1417 1417 1417 1417 1418 1418 1418 1418 1419 1419 1420 1420 1421 1421 1421 1421 1421 1421 1422 1422 1422 1422 1422 1422 1423 1423 1423 1422 1421 1421 1422 1421 1420 1418 1418 1416 1415 1415
1413 1413 1413 1413 1414 1414 1414 1415 1415 1415 1415 1416 1416 1417 1417 1417 1417 1417 1418 1418 1418 1417 1417 1417 1418 1419 1418 1418 1417 1415 1415 1416 1415 1413 1412 1411 1409 1408
1409 1409 1409 1410 1410 1410 1410 1410 1411 1411 1411 1411 1412 1412 1413 1413 1413 1413 1414 1413 1413 1413 1413 1413 1413 1413 1413 1413 1411 1410 1409 1409 1409 1408 1408 1407 1405 1402
1405 1405 1405 1405 1405 1406 1406 1406 1407 1407 1407 1407 1408 1408 1408 1409 1409 1409 1409 1409 1409 1409 1408 1408 1408 1408 1408 1408 1407 1406 1404 1403 1403 1402 1401 1401 1400 1399